Preview of NWS' New Version of Forecast
This preview is not operational and should not be used for support decisions.

Regional Weather Roundup (RWR)

Issued by Philadelphia/Mt Holly (PHI)

                            
000
ASUS41 KPHI 180912
RWRPHI

REGIONAL WEATHER ROUNDUP
NATIONAL WEATHER SERVICE MOUNT HOLLY NJ
500 AM EDT WED SEP 18 2019

NOTE:  "FAIR" INDICATES FEW OR NO CLOUDS BELOW 12,000 FEET WITH NO
SIGNIFICANT WEATHER AND/OR OBSTRUCTIONS TO VISIBILITY.

 * = STATION DOES NOT REPORT PRECIPITATION (E.G. RAIN, SNOW, ETC.) 
        OR FOG.

NJZ015>026-181000-
SOUTHERN NEW JERSEY
  
CITY           SKY/WX    TMP DP  RH WIND       PRES   REMARKS
POMONA         FAIR      54  50  86 CALM      30.14R                  
WILDWOOD*      FAIR      56  53  90 N5        30.14S                  
MILLVILLE      FAIR      52  50  93 CALM      30.15R                  
MOUNT HOLLY    FAIR      52  50  93 CALM      30.16S                  
TRENTON        FAIR      54  47  77 N6        30.17R                  

$$
NJZ001>014-181000-
NORTHERN NEW JERSEY
  
CITY           SKY/WX    TMP DP  RH WIND       PRES   REMARKS
SUSSEX         FAIR      45  43  93 CALM      30.20S                  
ANDOVER*         N/A     50  47  89 NE3       30.20S                  
MORRISTOWN     FAIR      45  45 100 CALM      30.18R                  
NEWARK         FAIR      57  47  69 N8        30.17S                  
TETERBORO      FAIR      57  47  69 N6        30.17S                  
CALDWELL       FAIR      55  48  77 NE5       30.19S                  
SOMERVILLE     FAIR      49  47  93 CALM      30.16S                  
ALLAIRE*       MOCLDY    54  51  90 CALM      30.17R                  
TOMS RIVER*    FAIR      51  32  48 N3        30.16S                  

$$
PAZ043-044-047-054-055-060>062-066>071-181000-
EASTERN PENNSYLVANIA
  
CITY           SKY/WX    TMP DP  RH WIND       PRES   REMARKS
PHILADELPHIA   FAIR      59  50  72 N3        30.16S                  
NORTH PHILA    FAIR      57  49  74 CALM      30.18R                  
BLUE BELL*     FAIR      48  48  99 CALM      30.18R FOG              
DOYLESTOWN     MOCLDY    55  47  74 NE5       30.17S                  
QUAKERTOWN*    CLEAR     48  48 100 CALM      30.19R                  
PERKASIE*      CLOUDY    48  48 100 CALM      30.19R                  
POTTSTOWN      FAIR      48  48 100 CALM      30.19S                  
LANCASTER      FAIR      56  46  69 E3        30.16F                  
COATESVILLE    FAIR      54  48  82 CALM      30.18S                  
WEST CHESTER   FAIR      54  50  87 CALM      30.17S                  
READING        FAIR      53  51  93 N3        30.17R                  
ALLENTOWN      FAIR      52  46  80 NE5       30.19R                  
QN CITY/ALNTWN FAIR      55  48  76 NE6       30.20S                  
MOUNT POCONO   FAIR      47  43  86 NE3       30.21S                  
HAZLETON       FAIR      43  41  93 CALM      30.24R                  
LEHIGHTON      FAIR      41  41 100 CALM      30.22R                  
WILKES BARRE   FAIR      49  45  86 SE6       30.21R                  

$$
DEZALL-MDZ008-012-015-019-020-181000-
DELAWARE AND EASTERN MARYLAND
  
CITY           SKY/WX    TMP DP  RH WIND       PRES   REMARKS
WILMINGTON     FAIR      55  54  96 NW5       30.16S                  
CHESWOLD       SUNNY     52  52 100 CALM      30.15R                  
GEORGETOWN     FAIR      55  52  89 CALM      30.14S                  
EASTON         FAIR      56  53  89 N3        30.18S                  
STEVENSVILLE   FAIR      57  55  94 CALM      30.15R                  
PATUXENT       FAIR      64  54  69 NE7       30.13S                  
OCEAN CITY     FAIR      67  52  58 NE10      30.12R                  
WALLOPS ISLAND FAIR      60  54  80 N7        30.12R                  
CAMBRIDGE      CLEAR     54  54 100 CALM      30.14R                  
SALISBURY      FAIR      55  51  86 N3        30.13R                  

$$
PAZ001-021-NYZ056-072-MDZ011-DCZ001-181000-
OTHER NEARBY LOCATIONS
  
CITY           SKY/WX    TMP DP  RH WIND       PRES   REMARKS
HARRISBURG     FAIR      57  49  74 NW3       30.16R                  
STATE COLLEGE  FAIR      51  49  93 CALM      30.22S                  
WILLIAMSPORT   FAIR      51  48  89 CALM      30.21R                  
BINGHAMTON     FAIR      47  43  86 NE6       30.23S                  
NEW YORK CITY  MOCLDY    62  55  77 VRB6      30.20S                  
BALTIMORE      FAIR      59  56  89 W3        30.14R                  
WASHINGTON DC  FAIR      64  60  87 NE5       30.15R                  

$$